TimeEST,TemperatureF,Dew PointF,Humidity,Sea Level PressureIn,VisibilityMPH,Wind Direction,Wind SpeedMPH,Gust SpeedMPH,PrecipitationIn,Events,Conditions,WindDirDegrees,DateUTC
12:15 AM,60.8,53.6,77,29.86,10.0,WSW,9.2,-,N/A,,Clear,250,2013-02-12 05:15:00
12:35 AM,60.8,53.6,77,29.88,10.0,West,12.7,18.4,N/A,,Clear,260,2013-02-12 05:35:00
12:55 AM,60.8,51.8,72,29.87,10.0,West,9.2,16.1,N/A,,Clear,260,2013-02-12 05:55:00
1:15 AM,60.8,51.8,72,29.87,10.0,West,10.4,16.1,N/A,,Clear,270,2013-02-12 06:15:00
1:35 AM,59.0,50.0,72,29.88,10.0,West,10.4,16.1,N/A,,Clear,270,2013-02-12 06:35:00
1:55 AM,59.0,50.0,72,29.89,10.0,West,8.1,-,N/A,,Clear,270,2013-02-12 06:55:00
2:15 AM,57.2,48.2,72,29.90,10.0,West,8.1,-,N/A,,Clear,270,2013-02-12 07:15:00
2:35 AM,57.2,46.4,67,29.90,10.0,West,11.5,17.3,N/A,,Clear,280,2013-02-12 07:35:00
2:55 AM,57.2,44.6,63,29.91,10.0,West,10.4,16.1,N/A,,Clear,260,2013-02-12 07:55:00
3:15 AM,57.2,44.6,63,29.91,10.0,West,10.4,-,N/A,,Clear,260,2013-02-12 08:15:00
3:35 AM,55.4,44.6,67,29.91,10.0,West,9.2,-,N/A,,Clear,260,2013-02-12 08:35:00
3:55 AM,55.4,44.6,67,29.92,10.0,West,8.1,-,N/A,,Clear,260,2013-02-12 08:55:00
4:15 AM,55.4,42.8,63,29.93,10.0,West,11.5,-,N/A,,Clear,260,2013-02-12 09:15:00
4:35 AM,53.6,42.8,67,29.94,10.0,West,9.2,-,N/A,,Clear,270,2013-02-12 09:35:00
4:55 AM,53.6,41.0,62,29.94,10.0,West,9.2,-,N/A,,Clear,260,2013-02-12 09:55:00
5:15 AM,53.6,39.2,58,29.95,10.0,West,11.5,-,N/A,,Clear,270,2013-02-12 10:15:00
5:35 AM,51.8,37.4,58,29.95,10.0,West,8.1,-,N/A,,Clear,260,2013-02-12 10:35:00
5:55 AM,51.8,33.8,50,29.95,10.0,West,9.2,-,N/A,,Clear,260,2013-02-12 10:55:00
6:15 AM,50.0,33.8,54,29.97,10.0,West,9.2,-,N/A,,Clear,280,2013-02-12 11:15:00
6:35 AM,48.2,32.0,54,29.97,10.0,West,8.1,-,N/A,,Clear,280,2013-02-12 11:35:00
6:55 AM,48.2,30.2,50,29.98,10.0,West,12.7,-,N/A,,Clear,280,2013-02-12 11:55:00
7:15 AM,48.2,30.2,50,29.99,10.0,WNW,6.9,-,N/A,,Clear,290,2013-02-12 12:15:00
7:35 AM,48.2,30.2,50,29.99,10.0,WNW,6.9,-,N/A,,Clear,300,2013-02-12 12:35:00
7:55 AM,48.2,30.2,50,30.01,10.0,WNW,9.2,-,N/A,,Clear,290,2013-02-12 12:55:00
8:15 AM,48.2,30.2,50,30.01,10.0,West,5.8,-,N/A,,Clear,280,2013-02-12 13:15:00
8:35 AM,51.8,28.4,41,30.02,10.0,West,8.1,-,N/A,,Clear,280,2013-02-12 13:35:00
8:55 AM,51.8,28.4,41,30.02,10.0,West,9.2,17.3,N/A,,Clear,270,2013-02-12 13:55:00
9:15 AM,53.6,28.4,38,30.04,10.0,WNW,13.8,18.4,N/A,,Clear,290,2013-02-12 14:15:00
9:35 AM,53.6,30.2,41,30.04,10.0,West,10.4,16.1,N/A,,Clear,280,2013-02-12 14:35:00
9:55 AM,53.6,30.2,41,30.04,10.0,WNW,11.5,-,N/A,,Clear,290,2013-02-12 14:55:00
10:15 AM,53.6,30.2,41,30.04,10.0,WNW,8.1,-,N/A,,Clear,300,2013-02-12 15:15:00
10:35 AM,53.6,30.2,41,30.04,10.0,NW,9.2,-,N/A,,Clear,310,2013-02-12 15:35:00
10:55 AM,55.4,30.2,38,30.04,10.0,WNW,8.1,-,N/A,,Clear,290,2013-02-12 15:55:00
11:15 AM,55.4,30.2,38,30.05,10.0,WSW,5.8,-,N/A,,Clear,250,2013-02-12 16:15:00
11:35 AM,55.4,30.2,38,30.04,10.0,West,5.8,-,N/A,,Clear,260,2013-02-12 16:35:00
11:55 AM,57.2,28.4,33,30.03,10.0,West,9.2,-,N/A,,Clear,280,2013-02-12 16:55:00
12:15 PM,57.2,28.4,33,30.02,10.0,West,9.2,-,N/A,,Clear,280,2013-02-12 17:15:00
12:35 PM,57.2,30.2,36,30.02,10.0,WSW,8.1,-,N/A,,Clear,240,2013-02-12 17:35:00
12:55 PM,59.0,28.4,31,30.01,10.0,SW,5.8,-,N/A,,Clear,230,2013-02-12 17:55:00
1:15 PM,59.0,30.2,34,30.00,10.0,WSW,6.9,-,N/A,,Clear,240,2013-02-12 18:15:00
1:35 PM,60.8,28.4,29,29.98,10.0,NW,6.9,-,N/A,,Clear,310,2013-02-12 18:35:00
1:55 PM,60.8,28.4,29,29.97,10.0,WSW,4.6,-,N/A,,Clear,250,2013-02-12 18:55:00
2:15 PM,60.8,28.4,29,29.96,10.0,WSW,4.6,-,N/A,,Clear,240,2013-02-12 19:15:00
2:35 PM,60.8,28.4,29,29.94,10.0,South,8.1,-,N/A,,Clear,170,2013-02-12 19:35:00
2:55 PM,60.8,28.4,29,29.96,10.0,SSW,9.2,-,N/A,,Clear,210,2013-02-12 19:55:00
3:15 PM,60.8,28.4,29,29.97,10.0,WSW,5.8,-,N/A,,Clear,250,2013-02-12 20:15:00
3:35 PM,60.8,28.4,29,29.96,10.0,West,8.1,-,N/A,,Clear,280,2013-02-12 20:35:00
3:55 PM,59.0,28.4,31,29.97,10.0,WSW,3.5,-,N/A,,Clear,240,2013-02-12 20:55:00
4:15 PM,59.0,30.2,34,29.98,10.0,WSW,6.9,-,N/A,,Clear,250,2013-02-12 21:15:00
4:35 PM,57.2,30.2,36,29.96,10.0,West,5.8,-,N/A,,Clear,260,2013-02-12 21:35:00
4:55 PM,57.2,30.2,36,29.96,10.0,WSW,4.6,-,N/A,,Clear,250,2013-02-12 21:55:00
5:15 PM,57.2,28.4,33,29.98,10.0,SSW,3.5,-,N/A,,Clear,210,2013-02-12 22:15:00
5:35 PM,55.4,28.4,36,29.98,10.0,WSW,4.6,-,N/A,,Clear,250,2013-02-12 22:35:00
5:55 PM,55.4,28.4,36,29.99,10.0,WSW,3.5,-,N/A,,Clear,250,2013-02-12 22:55:00
6:15 PM,53.6,28.4,38,29.99,10.0,Calm,Calm,-,N/A,,Clear,0,2013-02-12 23:15:00
6:35 PM,53.6,30.2,41,29.98,10.0,Calm,Calm,-,N/A,,Clear,0,2013-02-12 23:35:00
6:55 PM,51.8,35.6,54,29.97,10.0,Calm,Calm,-,N/A,,Clear,0,2013-02-12 23:55:00
7:15 PM,50.0,37.4,62,29.98,10.0,Calm,Calm,-,N/A,,Clear,0,2013-02-13 00:15:00
7:35 PM,48.2,37.4,66,29.98,10.0,Calm,Calm,-,N/A,,Clear,0,2013-02-13 00:35:00
7:55 PM,48.2,37.4,66,29.97,10.0,Calm,Calm,-,N/A,,Clear,0,2013-02-13 00:55:00
8:15 PM,48.2,37.4,66,29.95,10.0,Calm,Calm,-,N/A,,Clear,0,2013-02-13 01:15:00
8:35 PM,46.4,39.2,76,29.94,10.0,Calm,Calm,-,N/A,,Clear,0,2013-02-13 01:35:00
9:15 PM,48.2,39.2,71,29.94,10.0,Calm,Calm,-,N/A,,Clear,0,2013-02-13 02:15:00
9:35 PM,48.2,39.2,71,29.94,10.0,Calm,Calm,-,N/A,,Clear,0,2013-02-13 02:35:00
9:55 PM,48.2,39.2,71,29.96,10.0,Calm,Calm,-,N/A,,Scattered Clouds,0,2013-02-13 02:55:00
10:15 PM,48.2,39.2,71,30.00,10.0,SW,4.6,-,N/A,,Scattered Clouds,220,2013-02-13 03:15:00
10:35 PM,50.0,37.4,62,29.98,10.0,Calm,Calm,-,N/A,,Mostly Cloudy,0,2013-02-13 03:35:00
10:55 PM,50.0,37.4,62,29.97,10.0,Calm,Calm,-,N/A,,Scattered Clouds,0,2013-02-13 03:55:00
11:15 PM,48.2,39.2,71,29.97,5.0,South,3.5,-,N/A,,Scattered Clouds,190,2013-02-13 04:15:00
11:35 PM,50.0,37.4,62,29.97,10.0,South,5.8,-,N/A,,Mostly Cloudy,190,2013-02-13 04:35:00
11:55 PM,51.8,37.4,58,29.96,10.0,South,5.8,-,N/A,,Overcast,190,2013-02-13 04:55:00